Voltar ao catálogo

ATLAS 5 CENTAUR DEB

AtivoHEO
NORAD 43960·DEBRIS·🇺🇸 United States

Lançado Sep 17, 2014 de Cape Canaveral Space Force Station

Loading…

Próximas Passagens (próximas 24 horas)

TLE

AtualizadoSource: Space-Track

Época: Sep 10, 2026, 11:23 UTC

1 43960U 14055P   26253.47454373 -.00000105  00000-0  00000-0 0  9999
2 43960  20.2497 129.7780 5012638 187.8945 159.5817  1.81619170 53197

Acompanhe ATLAS 5 CENTAUR DEB em tempo real com AllMySat

Download on the App Store